Regional Weather Roundup
Issued by NWS

Home | Current Version | Previous Version | Text Only | Print | Product List | Glossary On
Versions: 1 2 3 4 5 6 7 8 9 10 11 12 13 14 15 16 17 18 19 20 21 22 23 24 25 26 27 28 29 30 31 32 33 34 35 36 37 38 39 40 41 42 43 44 45 46 47 48 49 50
000
ASUS43 KMKX 250700
RWRWI

WISCONSIN REGIONAL WEATHER ROUNDUP
NATIONAL WEATHER SERVICE MILWAUKEE/SULLIVAN WI
200 AM CDT SAT MAR 25 2017

NOTE: "FAIR" INDICATES FEW OR NO CLOUDS BELOW 12,000 FEET WITH NO
SIGNIFICANT WEATHER AND/OR OBSTRUCTIONS TO VISIBILITY.

WIZ001-002-006>008-014>016-023>028-250800-
NORTHWEST WISCONSIN

CITY           SKY/WX    TMP DP  RH WIND       PRES   REMARKS
SUPERIOR ARPT  CLOUDY    35  33  93 E7        30.28R WCI  29
ASHLAND        CLOUDY    34  30  85 NE8       30.28R WCI  27
HAYWARD        CLOUDY    35  29  78 NE3       30.23R
SIREN          CLOUDY    36  30  79 E5        30.23S WCI  32
CUMBERLAND     CLOUDY    34  30  86 NE8       30.21R WCI  27
RICE LAKE      CLOUDY    36  32  85 CALM      30.22R
CHETEK         CLOUDY    36  31  85 NE5       30.21R WCI  32
LADYSMITH      CLOUDY    36  32  87 NE6       30.22R WCI  31
EAU CLAIRE     NOT AVBL
MENOMONIE      CLOUDY    38  33  81 NE8       30.18S WCI  32
NEW RICHMOND   CLOUDY    36  31  82 NE10      30.19S WCI  28
OSCEOLA        CLOUDY    37  31  80 N8        30.24R WCI  31
$$

WIZ003>005-009-010-017-018-250800-
NORTH CENTRAL WISCONSIN

CITY           SKY/WX    TMP DP  RH WIND       PRES   REMARKS
MANITOWISH WTR CLOUDY    32  32 100 NE5       30.20S WCI  27
ARBOR VITAE    CLOUDY    34  32  92 NE3       30.20R
WOODRUFF       CLOUDY    34  32  92 NE3       30.20R
RHINELANDER    CLOUDY    34  31  88 NE8       30.21R WCI  27
EAGLE RIVER    CLOUDY    32  32  98 E6        30.20R WCI  27
LAND O LAKES   CLOUDY    32  32 100 NE5       30.22R FOG     WCI  27
PHILLIPS       CLOUDY    33  31  91 NE7       30.20R WCI  27
TOMAHAWK       CLOUDY    33  30  88 E5        30.20R WCI  28
MEDFORD        CLOUDY    33  31  92 NE9       30.17R WCI  25
MERRILL        CLOUDY    34  32  93 E7        30.20R WCI  28
$$

WIZ029-030-035-036-043>047-250800-
CENTRAL WISCONSIN

CITY           SKY/WX    TMP DP  RH WIND       PRES   REMARKS
WAUSAU         CLOUDY    34  31  88 NE9       30.16F WCI  27
MOSINEE        CLOUDY    34  32  93 NE14G21   30.17F WCI  24
MARSHFIELD     CLOUDY    35  32  88 E16       30.13F WCI  25
STEVENS POINT  CLOUDY    33  32  98 NE10      30.17F WCI  24
WAUPACA        DRIZZLE   37  34  91 NE8       30.18F WCI  30
WAUTOMA        CLOUDY    35  33  92 NE12      30.16S WCI  27
WISC RAPIDS    CLOUDY    35  34  96 E10G22    30.16F WCI  27
CAMP DOUGLAS   CLOUDY    36  36 100 E6        30.14S WCI  31
$$

WIZ011>013-019>022-031-037>040-048>050-250800-
NORTHEAST WISCONSIN

CITY           SKY/WX    TMP DP  RH WIND       PRES   REMARKS
ANTIGO         CLOUDY    32  31  96 E9        30.19R WCI  24
SHAWANO        CLOUDY    36  32  87 NE7       30.20F WCI  30
OCONTO         CLOUDY    35  32  90 NE5       30.21S WCI  30
STURGEON BAY   CLOUDY    35  32  88 NE10      30.20F WCI  27
GREEN BAY      CLOUDY    35  34  96 NE17      30.19F WCI  25
MANITOWOC      NOT AVBL
APPLETON       DRIZZLE   34  34 100 NE12G18   30.15F WCI  25
CLINTONVILLE   CLOUDY    34  32  93 NE9       30.20F WCI  26
OSHKOSH        CLOUDY    35  33  92 NE15      30.14F WCI  25
$$

WIZ032>034-041-042-053>061-250800-
SOUTHWEST WISCONSIN

CITY           SKY/WX    TMP DP  RH WIND       PRES   REMARKS
LA CROSSE      CLOUDY    40  36  86 E10       30.13F WCI  33
SPARTA         CLOUDY    37  36  96 E10       30.15S WCI  30
VIROQUA        CLOUDY    36  36  99 E13       30.10S WCI  27
BOSCOBEL       LGT RAIN  38  36  92 NE8       30.10F FOG     WCI  32
PRAIRIE DU CHI CLOUDY    38  37  96 NE7       30.09F FOG     WCI  32
PLATTEVILLE    CLOUDY    38  38  99 NE15G21   30.06F WCI  30
$$

WIZ056-057-062-063-064-067-068-250800-
SOUTH CENTRAL WISCONSIN

CITY           SKY/WX    TMP DP  RH WIND       PRES   REMARKS
REEDSBURG      CLOUDY    35  35 100 E10       30.12S FOG     WCI  28
BARABOO/DELLS  CLOUDY    35  34  95 E14       30.12S WCI  26
LONE ROCK      NOT AVBL
MINERAL POINT  CLOUDY    37  37 100 NE13G20   30.07S WCI  29
MADISON        LGT RAIN  37  34  89 NE15      30.09F WCI  28
MIDDLETON      CLOUDY    38  35  87 NE16      30.09F WCI  29
WATERTOWN      LGT RAIN  37  36  99 NE10      30.10F WCI  29
MONROE         CLOUDY    37  36  93 NE17      30.04F WCI  28
JANESVILLE     CLOUDY    39  37  93 NE12G18   30.07F WCI  32
$$

WIZ051-052-058>065-066-070>072-250800-
SOUTHEAST WISCONSIN

CITY           SKY/WX    TMP DP  RH WIND       PRES   REMARKS
MILWAUKEE      LGT RAIN  38  35  89 N16G24    30.11R WCI  29
WAUKESHA       CLOUDY    36  32  87 NE10G21   30.11S WCI  28
MILWAUKEE/TIMM CLOUDY    36  32  87 NE16G30   30.12S WCI  26
RACINE         LGT RAIN  37  34  89 N17G24    30.12S WCI  27
KENOSHA        LGT RAIN  37  35  92 NE14      30.09S FOG     WCI  28
FOND DU LAC    CLOUDY    37  32  82 NE13G21   30.13F WCI  29
SHEBOYGAN      CLOUDY    36  34  92 NE17      30.13F WCI  26
WEST BEND      CLOUDY    36  34  93 NE14G22   30.11F WCI  27
JUNEAU         CLOUDY    36  33  90 NE13      30.11F WCI  27
$$

LSZ147-162-250800-
LAKE SUPERIOR

STATION/POSITION TIME  TEMP    WIND        PRES    WAVE
                       AIR SEA DIR/SP/G            HT/PER
                 (UTC) (F)     (DEG/KT/KT) (MB)    (FT/S)
DEVILS ISLAND    0600   35      80/ 16/ 18 1025.7R
PORT WING        0640   35      90/  4/  8 1025.4R
SAXON HARBOR     0630   34      80/  4/  7 1024.0S
$$

LMZ867-665-643>646-250800-
LAKE MICHIGAN

STATION/POSITION TIME  TEMP    WIND        PRES    WAVE
                       AIR SEA DIR/SP/G            HT/PER
                 (UTC) (F)     (DEG/KT/KT) (MB)    (FT/S)
CHAMBERS ISLAND  0640   33      10/ 10/ 12 1022.7S
NORTHPORT PIER   0640   34      20/  4/  7 1023.4R
SISTER BAY       0635   35      20/  6/  7   N/A
KEWAUNEE LAKESHO 0630   35      30/ 10/ 13 1021.7F
SHEBOYGAN LAKESH 0600   36      10/ 18/ 19 1021.5F
PORT WASHINGTON  0640   38      30/ 15/ 20 1021.0S
MILWAUKEE LAKESH 0630   37      10/ 18/ 20   N/A
KENOSHA   LAKESH 0600   37      10/ 24/ 26 1019.0
$$

TC  - TEMPERATURE IN CELSIUS
VSB - VISIBILITY IN STATUTE MILES
WCI - WIND CHILL INDEX
HX  - HEAT INDEX





USA.gov is the U.S. government's official web portal to all federal, state and local government web resources and services.